Regional Weather Roundup
Issued by NWS

Home | Current Version | Previous Version | Graphics & Text | Print | Product List | Glossary On
Versions: 1 2 3 4 5 6 7 8 9 10 11 12 13 14 15 16 17 18 19 20 21 22 23 24 25 26 27 28 29 30 31 32 33 34 35 36 37 38 39 40 41 42 43 44 45 46 47 48 49 50
931
ASUS44 KJAN 291610
RWRMS

MISSISSIPPI HOURLY WEATHER ROUNDUP
NATIONAL WEATHER SERVICE JACKSON MS
1100 AM CDT SUN MAR 29 2015

NOTE: "FAIR: INDICATES FEW OR NO CLOUDS BELOW 12,000 FEET WITH NO
SIGNIFICANT WEATHER AND/OR OBSTRUCTIONS TO VISIBILITY.

MSZ001>002-007>008-010>013-018>021-025>028-034>036-291700-
NORTHWEST MISSISSIPPI

CITY           SKY/WX    TMP DP  RH WIND       PRES   REMARKS
CLARKSDALE     CLOUDY    50  37  62 SE15      30.25F
CLEVELAND      CLOUDY    53  40  63 S14G21    30.24F
GREENWOOD      CLOUDY    55  35  47 SE13      30.27S
GREENVILLE     CLOUDY    54  39  57 S14       30.23F
OLIVE BRANCH   CLOUDY    46  32  57 S12       30.26S
OXFORD         PTSUNNY   46  28  49 S12G23    30.29F
TUNICA         PTSUNNY   48  36  61 SE17      30.25F
$$

MSZ003>006-009-014>017-022>024-029>033-037>039-291700-
NORTHEAST MISSISSIPPI

CITY           SKY/WX    TMP DP  RH WIND       PRES   REMARKS
COLUMBUS AFB   CLOUDY    49  26  39 S13       30.33F
CORINTH        FAIR      54  25  32 S15       30.29F
GOLDN TRIANGLE CLOUDY    50  28  43 S14       30.34S
STARKVILLE     CLOUDY    48  32  53 SE12G17   30.32F
TUPELO         CLOUDY    48  23  37 S13       30.32S
$$

MSZ040-058-291700-
CENTRAL MISSISSIPPI

CITY           SKY/WX    TMP DP  RH WIND       PRES   REMARKS
JACKSON INTL   PTSUNNY   57  37  47 S14       30.29F
JACKSON HAWKNS CLOUDY    57  37  47 SE14      30.29F
MERIDIAN KEY   CLOUDY    57  32  38 SE12      30.33F
MERIDIAN NAS   NOT AVBL
RAYMOND        PTSUNNY   57  54  88 SE8       30.28F
VICKSBURG      MOSUNNY   60  44  55 S13       30.26F
$$

MSZ059>079-291700-
SOUTH MISSISSIPPI

CITY           SKY/WX    TMP DP  RH WIND       PRES   REMARKS
BROOKHAVEN     FAIR      63  48  59 SE12      30.30F
HATTIESBURG    SUNNY     62  42  47 SE9       30.34S
MCCOMB         SUNNY     62  47  57 SE9       30.30S
NATCHEZ        SUNNY     66  52  59 S13       30.26F
PINE BELT      SUNNY     59  39  47 SE13      30.33F
$$

MSZ080>082-291700-
COASTAL MISSISSIPPI

CITY           SKY/WX    TMP DP  RH WIND       PRES   REMARKS
BAY ST LOUIS   MOSUNNY   64  52  63 SE12G17   30.33R
BILOXI         SUNNY     63  51  65 SE13G23   30.34R
PASCAGOULA     SUNNY     63  48  58 SE13      30.35S
GULFPORT       SUNNY     62  51  67 SE15G23   30.34R
$$



USA.gov is the U.S. government's official web portal to all federal, state and local government web resources and services.